Volver al catálogo

STARLINK-30227

ActivoComunicacionesVLEO
NORAD 57505·PAYLOAD·🇺🇸 United States

Lanzado Aug 7, 2023 desde Cape Canaveral Space Force Station

Loading…

Próximos Pases (próximas 24 horas)

TLE

ActualizadoSource: CelesTrak SupGP

Época: Sep 14, 2026, 20:45 UTC

1 57505C 23113L   26257.86506944  .00074318  00000+0  23013-2 0  2576
2 57505  42.9955  17.3367 0018424 322.0729 108.3094 15.32425989    13

Sigue STARLINK-30227 en tiempo real con AllMySat

Download on the App Store